Location: Newark
(40.9833°N, 0.0333°W)
Time: 18:23:04
(UTC+00:00)

Hubble Space Telescope - Visible Passes

Search period start: 23 October 2019 00:00
Search period end: 02 November 2019 00:00
Orbit: 536 x 540 km, 28.5° (Epoch: 22 October)

Date Brightness Start Highest point End Pass type
(mag) Time Alt. Az. Time Alt. Az. Time Alt. Az.
31 Oct 3.2 06:01:21 10° SSW 06:03:35 14° S 06:05:50 10° SE visible
01 Nov 3.4 04:12:47 11° SSE 04:12:47 11° SSE 04:13:45 10° SSE visible
01 Nov 3.2 05:50:38 10° SW 05:52:53 14° S 05:55:06 10° SSE visible
